This is the latest recevied weather packets stored in our database for station/object KB3HLL. If no packets are shown the sender has not sent any weather packets the latest 10 day(s).
| Time | Temp. | Humidity | Pressure | Rain* | Wind** | Luminosity | Snow |
|---|---|---|---|---|---|---|---|
| 1777476377 | 8.89° C | 99% | 1010.3 hPa | 0 mm | - | 106 W/m² | - |
| 1777476078 | 8.89° C | 99% | 1010.7 hPa | 0 mm | - | 107 W/m² | - |
| 1777475778 | 8.89° C | 99% | 1010.7 hPa | 0 mm | - | 102 W/m² | - |
| 1777475480 | 8.89° C | 99% | 1010.9 hPa | 0 mm | - | 112 W/m² | - |
| 1777475179 | 8.89° C | 99% | 1011.2 hPa | 0 mm | - | 139 W/m² | - |
| 1777474880 | 8.89° C | 99% | 1011.3 hPa | 0 mm | - | 126 W/m² | - |
| 1777474580 | 8.89° C | 99% | 1011.6 hPa | 0 mm | - | 100 W/m² | - |
| 1777474277 | 8.89° C | 99% | 1011.7 hPa | 0 mm | - | 102 W/m² | - |
| 1777473977 | 8.89° C | 99% | 1011.9 hPa | 0 mm | - | 106 W/m² | - |
| 1777473680 | 8.89° C | 99% | 1011.9 hPa | 0 mm | - | 109 W/m² | - |
| 1777473378 | 8.89° C | 99% | 1012.2 hPa | 0 mm | - | 114 W/m² | - |
| 1777473080 | 8.89° C | 99% | 1012.9 hPa | 0 mm | - | 103 W/m² | - |
| 1777472779 | 8.89° C | 99% | 1012.9 hPa | 0 mm | - | 136 W/m² | - |
| 1777472479 | 8.33° C | 99% | 1013 hPa | 0 mm | - | 116 W/m² | - |
| 1777472179 | 8.33° C | 99% | 1013 hPa | 0 mm | - | 120 W/m² | - |
| 1777471580 | 8.33° C | 99% | 1013.1 hPa | 0 mm | - | 88 W/m² | - |
| 1777471281 | 8.33° C | 99% | 1013.4 hPa | 0 mm | - | 71 W/m² | - |
| 1777470978 | 8.33° C | 99% | 1013.3 hPa | 0 mm | - | 81 W/m² | - |
| 1777470680 | 8.33° C | 99% | 1013.4 hPa | 0 mm | - | 103 W/m² | - |
| 1777470380 | 8.33° C | 99% | 1013.5 hPa | 0 mm | - | 96 W/m² | - |
| 1777470079 | 8.33° C | 99% | 1013.4 hPa | 0 mm | - | 126 W/m² | - |
| 1777469780 | 8.33° C | 100% | 1013.5 hPa | 0 mm | - | 144 W/m² | - |
| 1777469480 | 8.33° C | 99% | 1013.5 hPa | 0 mm | - | 138 W/m² | - |
| 1777469180 | 8.33° C | 99% | 1013.3 hPa | 0 mm | - | 131 W/m² | - |
| 1777468878 | 8.33° C | 99% | 1013.1 hPa | 0 mm | - | 179 W/m² | - |
* Rain latest hour (hover to see other rain measurements)
** Current wind speed in m/s (hover to see current wind gust speed)